Mombasa, Kenya

5:43 AM EAT on August 31, 2016 (GMT +0300)
Moi

Weather History for HKMO - November, 2012

Change the Weather History Date:

Thursday, November 15, 2012

  Actual Average Record
Temperature  
Mean Temperature 82 °F -  
Max Temperature 88 °F 90 °F 89 °F (2015)
Min Temperature 75 °F 72 °F 71 °F (2013)
Cooling Degree Days 16    
Growing Degree Days 32 (Base 50)    
Moisture  
Dew Point 75 °F    
Average Humidity 83    
Maximum Humidity 94    
Minimum Humidity 66    
Precipitation  
Precipitation 0.00 in 0.12 in - ()
Sea Level Pressure  
Sea Level Pressure 29.86 in    
Wind  
Wind Speed 4 mph ()    
Max Wind Speed 12 mph    
Max Gust Speed -    
Visibility 7.8 miles    
Events      
Averages and records for this station are not official NWS values.
T = Trace of Precipitation, MM = Missing Value Source: Averaged Metar Reports

Daily Weather History Graph

Daily Weather History Graph

Search for Another Location

Airport or City:

Trip Planner

Search our weather history database for the weather conditions in past years. The results will help you decide how hot, cold, wet, or windy it might be!

Date:

Astronomy

Nov. 15, 2012 Rise Set
Actual Time 5:57 AM EAT 6:15 PM EAT
Civil Twilight 5:35 AM EAT 6:37 PM EAT
Nautical Twilight 5:09 AM EAT 7:02 PM EAT
Astronomical Twilight 4:44 AM EAT 7:28 PM EAT
Moon 7:15 AM EAT (11/15) 7:58 PM EAT (11/15)
Length of Visible Light 13h 01m
Length of Day
12h 18m
Waxing Crescent, 3% of the Moon is Illuminated
Nov 15
Waxing Crescent
Nov 20
First Quarter
Nov 28
Full
Dec 6
Last Quarter
Dec 13
New

Hourly Weather History & Observations

Time (EAT) Temp. Heat Index Dew Point Humidity Pressure Visibility Wind Dir Wind Speed Gust Speed Precip Events Conditions
12:00 AM 78.8 °F - 75.2 °F 89% 29.86 in 6.2 mi Calm Calm - N/A   Partly Cloudy
2:00 AM 77.0 °F - 75.2 °F 94% 29.83 in 6.2 mi WNW 4.6 mph - N/A   Partly Cloudy
3:00 AM 76 °F - 75 °F 94% 29.82 in 19 mi WNW 5.8 mph - -   Partly Cloudy
3:00 AM 77.0 °F - 75.2 °F 94% 29.83 in 6.2 mi WNW 5.8 mph - N/A   Partly Cloudy
4:00 AM 77.0 °F - 73.4 °F 89% 29.83 in 6.2 mi West 3.5 mph - N/A   Partly Cloudy
5:00 AM 77.0 °F - 73.4 °F 89% 29.86 in 6.2 mi West 3.5 mph - N/A   Partly Cloudy
6:00 AM 75.2 °F - 73.4 °F 94% 29.86 in 6.2 mi West 4.6 mph - N/A   Partly Cloudy
7:00 AM 77.0 °F - 75.2 °F 94% 29.89 in 6.2 mi West 5.8 mph - N/A   Partly Cloudy
8:00 AM 80.6 °F 86.2 °F 75.2 °F 84% 29.89 in 6.2 mi West 5.8 mph - N/A   Partly Cloudy
9:00 AM 82 °F - 75 °F 73% 29.91 in 19 mi West 3.5 mph - -   Partly Cloudy
9:00 AM 82.4 °F 89.5 °F 75.2 °F 79% 29.92 in 6.2 mi West 3.5 mph - N/A   Scattered Clouds
10:00 AM 84.2 °F 90.9 °F 73.4 °F 70% 29.92 in 6.2 mi SSW 3.5 mph - N/A   Mostly Cloudy
11:00 AM 87.8 °F 97.6 °F 75.2 °F 66% 29.89 in 6.2 mi Calm Calm - N/A   Mostly Cloudy
2:00 PM 86.0 °F 95.1 °F 75.2 °F 70% 29.83 in 6.2 mi SSE 11.5 mph - N/A   Mostly Cloudy
3:00 PM 84.2 °F 92.3 °F 75.2 °F 74% 29.83 in 6.2 mi SE 11.5 mph - N/A   Mostly Cloudy
4:00 PM 84.2 °F 92.3 °F 75.2 °F 74% 29.80 in 6.2 mi SSE 9.2 mph - N/A   Mostly Cloudy
5:00 PM 84.2 °F 90.9 °F 73.4 °F 70% 29.80 in 6.2 mi ESE 8.1 mph - N/A   Scattered Clouds
6:00 PM 82.4 °F 89.5 °F 75.2 °F 79% 29.83 in 6.2 mi ESE 6.9 mph - N/A   Scattered Clouds
7:00 PM 80.6 °F 86.2 °F 75.2 °F 84% 29.83 in 6.2 mi SE 3.5 mph - N/A   Scattered Clouds
8:00 PM 80.6 °F 86.2 °F 75.2 °F 84% 29.86 in 6.2 mi ESE 5.8 mph - N/A   Partly Cloudy
9:00 PM 80 °F - 76 °F 83% 29.87 in 19 mi ESE 9.2 mph - -   Scattered Clouds
9:00 PM 80.6 °F 86.2 °F 75.2 °F 84% 29.86 in 6.2 mi ESE 9.2 mph - N/A   Partly Cloudy
10:00 PM 80.6 °F 86.2 °F 75.2 °F 84% 29.89 in 6.2 mi SSE 3.5 mph - N/A   Partly Cloudy
11:00 PM 80.6 °F 87.1 °F 77.0 °F 89% 29.89 in 6.2 mi South 3.5 mph - N/A   Scattered Clouds